"2009-12-28 00:00:00",1541084,2.026,260.8,5.985,1.16,-0.593,98.07393,-5.606,-4.153,62.4,0,109.3,13.67,-4.87,222.8
"2009-12-28 00:00:30",1541085,1.738,255.9,7.088,1.182,-2.206,98.07921,-5.593,-4.331,62.16,0,109.3,13.67,-4.86,217.9
"2009-12-28 00:01:00",1541086,0.584,246.4,1.555,0.047,-4.843,98.0721,-5.611,-4.454,61.99,0,109.3,13.7,-4.88,208.4
"2009-12-28 00:01:30",1541087,0.594,245.9,2.577,0.032,-4.776,98.04966,-5.668,-4.436,61.97,0,109.3,13.7,-4.94,207.9
"2009-12-28 00:02:00",1541088,1.543,251.6,6.915,1.177,-2.233,98.05493,-5.654,-4.411,61.97,0,109.3,13.67,-4.92,213.6
"2009-12-28 00:02:30",1541089,2.364,263.5,7.854,1.064,0.291,98.05237,-5.661,-4.34,62.03,0,109.3,13.67,-4.93,225.5
"2009-12-28 00:03:00",1541090,1.863,268.3,8.16,1.17,-0.324,98.03788,-5.698,-4.358,62.07,0,109.3,13.67,-4.97,230.3
"2009-12-28 00:03:30",1541091,1.944,263.9,5.638,1.141,-0.58,98.02402,-5.733,-4.333,62.23,0,109.3,13.67,-5.00,225.9
"2009-12-28 00:04:00",1541092,1.635,255.5,8.45,1.117,-2.359,98.02593,-5.728,-4.482,62.3,0,109.3,13.67,-5.00,217.5
"2009-12-28 00:04:30",1541093,0.529,251.8,2.067,0.04,-4.936,98.01456,-5.757,-4.607,62.37,0,109.3,13.7,-5.03,213.8
"2009-12-28 00:05:00",1541094,1.525,253.5,4.974,1.168,-3.219,97.99558,-5.806,-4.522,62.54,0,109.3,13.68,-5.07,215.5
"2009-12-28 00:05:30",1541095,1.031,253.7,6.154,0.955,-3.058,97.99388,-5.81,-4.522,62.59,0,109.3,13.68,-5.08,215.7
"2009-12-28 00:06:00",1541096,2.186,259.9,6.432,1.126,-0.477,97.98906,-5.822,-4.482,62.69,0,109.3,13.68,-5.09,221.9
"2009-12-28 00:06:30",1541097,2.903,276.7,9.62,0.558,0.916,97.97177,-5.866,-4.458,62.81,0,109.3,13.69,-5.13,238.7
"2009-12-28 00:07:00",1541098,2.386,269.5,6.85,1.024,0.276,97.96044,-5.895,-4.525,62.84,0,109.3,13.69,-5.16,231.5
"2009-12-28 00:07:30",1541099,0.894,270.8,4.622,0.815,-3.161,97.95987,-5.896,-4.626,62.95,0,109.3,13.69,-5.17,232.8
"2009-12-28 00:08:00",1541100,0.7,255.7,15.2,0.071,-4.91,97.94882,-5.925,-4.734,62.99,0,109.3,13.72,-5.19,217.7
"2009-12-28 00:08:30",1541101,1.052,242.9,11.7,1.075,-3.122,97.93492,-5.96,-4.625,63.45,0,109.3,13.69,-5.23,204.9
"2009-12-28 00:09:00",1541102,0.714,250.9,8.65,0.837,-3.242,97.92838,-5.977,-4.658,63.67,0,109.3,13.69,-5.25,212.9
"2009-12-28 00:09:30",1541103,0.894,256.5,7.508,1.025,-2.233,97.93309,-5.965,-4.667,63.72,0,109.3,13.69,-5.23,218.5
"2009-12-28 00:10:00",1541104,1.625,260.3,11.78,1.198,-0.997,97.93974,-5.948,-4.692,63.78,0,109.2,13.69,-5.22,222.3
"2009-12-28 00:10:30",1541105,1.776,238.5,11.94,1.118,-1.114,97.94663,-5.93,-4.602,64.03,0,109.2,13.7,-5.20,200.5
"2009-12-28 00:11:00",1541106,1.16,228,8.36,1.204,-2.328,97.94771,-5.927,-4.72,64.01,0,109.2,13.7,-5.20,190.0
"2009-12-28 00:11:30",1541107,0.053,240.4,6.093,0.04,-5.177,97.94054,-5.946,-4.878,63.96,0,109.2,13.73,-5.21,202.4
"2009-12-28 00:12:00",1541108,0.037,203.3,15.13,0.054,-5.107,97.92548,-5.984,-4.889,63.99,0,109.3,13.73,-5.25,165.3
"2009-12-28 00:12:30",1541109,0.562,187.9,10.53,1.04,-3.834,97.92517,-5.985,-4.904,64.04,0,109.2,13.71,-5.25,149.9
"2009-12-28 00:13:00",1541110,0.886,188.7,12.16,1.17,-1.311,97.92517,-5.985,-4.774,64.17,0,109.2,13.71,-5.25,150.7
"2009-12-28 00:13:30",1541111,-0.027,196.7,11.21,0.066,-3.915,97.92374,-5.988,-4.895,64,0,109.2,13.71,-5.26,158.7
"2009-12-28 00:14:00",1541112,1.107,203.1,8.66,1.224,-2.298,97.90702,-6.031,-4.844,63.95,0,109.2,13.71,-5.30,165.1
"2009-12-28 00:14:30",1541113,0.399,196.5,7.828,0.837,-3.019,97.89229,-6.068,-4.786,63.94,0,109.2,13.71,-5.34,158.5
"2009-12-28 00:15:00",1541114,1.564,203.7,7.683,1.213,-1.811,97.89115,-6.071,-4.888,63.8,0,109.2,13.71,-5.34,165.7
"2009-12-28 00:15:30",1541115,1.974,204.1,8.55,1.12,-0.612,97.8903,-6.074,-4.751,63.91,0,109.2,13.71,-5.34,166.1
"2009-12-28 00:16:00",1541116,1.569,201.2,5.269,1.06,-3.174,97.87046,-6.124,-4.965,63.82,0,109.2,13.71,-5.39,163.2
"2009-12-28 00:16:30",1541117,1.452,197,5.658,1.136,-3.277,97.85884,-6.154,-4.973,63.78,0,109.2,13.71,-5.42,159.0
"2009-12-28 00:17:00",1541118,2.363,197.7,4.604,1.156,-1.057,97.85714,-6.158,-4.876,64.06,0,109.2,13.71,-5.43,159.7
"2009-12-28 00:17:30",1541119,1.446,194.6,8.89,1.181,-1.925,97.85714,-6.158,-4.92,64.08,0,109.2,13.71,-5.43,156.6
"2009-12-28 00:18:00",1541120,1.868,204.3,7.461,1.187,-1.963,97.8407,-6.2,-4.95,64.1,0,109.2,13.71,-5.47,166.3
"2009-12-28 00:18:30",1541121,1.895,203.2,8.57,1.183,-1.79,97.82312,-6.245,-4.974,63.99,0,109.2,13.71,-5.51,165.2
"2009-12-28 00:19:00",1541122,2.395,207.5,5.48,1.035,-0.298,97.82451,-6.241,-4.943,63.88,0,109.2,13.71,-5.51,169.5
"2009-12-28 00:19:30",1541123,0.891,197.6,7.453,0.954,-2.764,97.82451,-6.241,-5.12,63.72,0,109.2,13.71,-5.51,159.6
"2009-12-28 00:20:00",1541124,1.331,201.2,5.752,1.196,-2.452,97.82417,-6.242,-4.996,63.86,0,109.2,13.71,-5.51,163.2
"2009-12-28 00:20:30",1541125,0.956,195.5,6.463,0.989,-3.035,97.81384,-6.268,-5.002,63.89,0,109.2,13.71,-5.54,157.5
"2009-12-28 00:21:00",1541126,1.062,193.2,4.827,0.926,-3.492,97.80273,-6.296,-5.094,63.81,0,109.2,13.71,-5.57,155.2
"2009-12-28 00:21:30",1541127,2.191,199.4,6.136,1.172,-1.713,97.80602,-6.288,-5.122,63.74,0,109.2,13.72,-5.56,161.4
"2009-12-28 00:22:00",1541128,0.857,188,2.406,0.495,-3.375,97.81075,-6.276,-5.071,63.79,0,109.2,13.72,-5.55,150.0
"2009-12-28 00:22:30",1541129,2.594,194.5,5.267,1.071,0.123,97.81462,-6.266,-4.989,63.82,0,109.3,13.72,-5.54,156.5
"2009-12-28 00:23:00",1541130,2.565,197.5,5.181,1.123,0.056,97.81374,-6.268,-4.992,63.85,0,109.2,13.72,-5.54,159.5
"2009-12-28 00:23:30",1541131,1.795,194.9,6.472,1.16,-2.579,97.80527,-6.29,-5.163,63.85,0,109.2,13.72,-5.56,156.9
"2009-12-28 00:24:00",1541132,1.745,196.7,5.578,1.144,-2.046,97.79786,-6.309,-5.081,64.07,0,109.2,13.73,-5.58,158.7
"2009-12-28 00:24:30",1541133,1.205,199.7,3.809,0.846,-3.823,97.79133,-6.325,-5.166,64.08,0,109.2,13.73,-5.60,161.7
"2009-12-28 00:25:00",1541134,1.707,210.4,7.122,1.145,-2.22,97.78983,-6.329,-5.116,64.38,0,109.2,13.73,-5.60,172.4
"2009-12-28 00:25:30",1541135,1.638,213.2,7.544,1.17,-2.122,97.78752,-6.335,-5.18,64.45,0,109.2,13.73,-5.61,175.2
"2009-12-28 00:26:00",1541136,2.634,224.2,5.669,0.984,0.363,97.78835,-6.333,-4.953,64.73,0,109.2,13.73,-5.60,186.2
"2009-12-28 00:26:30",1541137,2.549,228.6,5.644,1.085,-0.581,97.78835,-6.333,-5.088,64.66,0,109.2,13.73,-5.60,190.6
"2009-12-28 00:27:00",1541138,1.097,222.7,3.519,0.727,-4.282,97.78835,-6.333,-5.244,64.55,0,109.2,13.73,-5.60,184.7
"2009-12-28 00:27:30",1541139,1.774,226.6,7.46,1.118,-2.689,97.78835,-6.333,-5.189,64.69,0,109.2,13.73,-5.60,188.6
"2009-12-28 00:28:00",1541140,1.068,222,4.267,0.747,-3.538,97.78325,-6.346,-5.159,64.85,0,109.2,13.74,-5.62,184.0
"2009-12-28 00:28:30",1541141,1.632,227.4,5.366,1.147,-1.985,97.77077,-6.378,-5.154,64.98,0,109.2,13.74,-5.65,189.4
"2009-12-28 00:29:00",1541142,2.459,233,6.196,1.058,-0.85,97.76171,-6.401,-5.1,65.15,0,109.2,13.74,-5.67,195.0
"2009-12-28 00:29:30",1541143,2.541,240.6,5.626,1.027,-0.068,97.75434,-6.42,-5.062,65.32,0,109.2,13.74,-5.69,202.6
"2009-12-28 00:30:00",1541144,1.156,236.1,5.386,0.894,-3.253,97.75489,-6.418,-5.173,65.28,0,109.2,13.74,-5.69,198.1
"2009-12-28 00:30:30",1541145,1.202,245.1,7.807,0.968,-3.115,97.75517,-6.417,-5.171,65.36,0,109.2,13.74,-5.69,207.1
"2009-12-28 00:31:00",1541146,1.276,246.7,4.83,1.027,-3.459,97.75489,-6.418,-5.251,65.37,0,109.2,13.74,-5.69,208.7
"2009-12-28 00:31:30",1541147,1.18,248.9,5.315,0.963,-2.877,97.75544,-6.417,-5.259,65.47,0,109.2,13.74,-5.69,210.9
"2009-12-28 00:32:00",1541148,1.678,252.9,6.328,1.179,-1.725,97.74236,-6.45,-5.094,65.79,0,109.2,13.74,-5.72,214.9
"2009-12-28 00:32:30",1541149,2.856,260.9,2.719,0.744,0.414,97.73242,-6.475,-5.044,65.98,0,109.2,13.74,-5.75,222.9
"2009-12-28 00:33:00",1541150,1.995,256.7,5.69,1.205,-1.048,97.72781,-6.487,-5.121,66.04,0,109.2,13.74,-5.76,218.7
"2009-12-28 00:33:30",1541151,0.718,251.6,0.773,0.005,-3.973,97.72917,-6.484,-5.301,66.05,0,109.2,13.77,-5.75,213.6
"2009-12-28 00:34:00",1541152,1.62,256.4,5.927,1.176,-2.547,97.73555,-6.467,-5.205,66.23,0,109.2,13.74,-5.74,218.4
"2009-12-28 00:34:30",1541153,1.112,253,4.253,0.854,-3.193,97.73998,-6.456,-5.228,66.32,0,109.2,13.74,-5.73,215.0
"2009-12-28 00:35:00",1541154,2.437,255.3,5.938,1.109,-0.963,97.74276,-6.449,-5.208,66.41,0,109.2,13.74,-5.72,217.3
"2009-12-28 00:35:30",1541155,1.813,250.1,7.243,1.186,-1.626,97.74357,-6.447,-5.184,66.51,0,109.2,13.74,-5.72,212.1
"2009-12-28 00:36:00",1541156,2.495,256.5,5.205,1.061,-0.443,97.73531,-6.468,-5.139,66.63,0,109.2,13.74,-5.74,218.5
"2009-12-28 00:36:30",1541157,2.252,258.1,6.318,1.167,-0.881,97.7285,-6.485,-5.135,66.68,0,109.2,13.74,-5.76,220.1
"2009-12-28 00:37:00",1541158,1.037,250.1,3.3,0.605,-3.947,97.72225,-6.501,-5.384,66.5,0,109.2,13.74,-5.77,212.1
"2009-12-28 00:37:30",1541159,1.893,252.6,6.41,1.16,-2.521,97.71658,-6.516,-5.263,66.67,0,109.2,13.74,-5.79,214.6
"2009-12-28 00:38:00",1541160,1.733,251.2,5.989,1.123,-2.423,97.71427,-6.522,-5.208,66.81,0,109.2,13.75,-5.79,213.2
"2009-12-28 00:38:30",1541161,2.702,255.7,5.839,1.075,-0.783,97.71565,-6.518,-5.22,66.88,0,109.2,13.75,-5.79,217.7
"2009-12-28 00:39:00",1541162,3.261,254,4.72,0.854,0.001,97.71676,-6.515,-5.128,67.1,0,109.2,13.75,-5.79,216.0
"2009-12-28 00:39:30",1541163,3.113,254.6,6.298,1.061,-0.368,97.71787,-6.512,-5.147,67.15,0,109.2,13.75,-5.78,216.6
"2009-12-28 00:40:00",1541164,2.036,250.3,4.066,0.993,-3.292,97.71925,-6.509,-5.411,67.04,0,109.2,13.76,-5.78,212.3
"2009-12-28 00:40:30",1541165,2.257,254.7,6.101,1.141,-2.398,97.71953,-6.508,-5.281,67.34,0,109.2,13.76,-5.78,216.7
"2009-12-28 00:41:00",1541166,2.555,255.1,5.6,1.176,-2.191,97.71925,-6.509,-5.288,67.55,0,109.2,13.76,-5.78,217.1
"2009-12-28 00:41:30",1541167,2.835,256.3,6.95,1.103,-0.909,97.7184,-6.511,-5.186,67.9,0,109.2,13.76,-5.78,218.3
"2009-12-28 00:42:00",1541168,3.757,262.4,4.117,0.838,0.248,97.71216,-6.527,-5.16,68.15,0,109.2,13.76,-5.80,224.4
"2009-12-28 00:42:30",1541169,3.286,260.4,5.635,1.122,-0.268,97.70649,-6.541,-5.189,68.34,0,109.2,13.76,-5.81,222.4
"2009-12-28 00:43:00",1541170,2.357,257.2,4.968,1.087,-2.272,97.7028,-6.551,-5.253,68.55,0,109.2,13.76,-5.82,219.2
"2009-12-28 00:43:30",1541171,1.883,252,1.998,0.232,-3.797,97.70365,-6.549,-5.342,68.69,0,109.2,13.76,-5.82,214.0
"2009-12-28 00:44:00",1541172,3.666,259.2,5.411,1.007,-0.564,97.70223,-6.552,-5.202,69.14,0,109.1,13.76,-5.82,221.2
"2009-12-28 00:44:30",1541173,3.555,256.1,5.524,1.029,-0.359,97.70167,-6.554,-5.24,69.59,0,109.2,13.76,-5.82,218.1
"2009-12-28 00:45:00",1541174,3.496,257.3,6.392,1.096,-0.359,97.70365,-6.549,-5.136,70.07,0,109.2,13.76,-5.82,219.3
"2009-12-28 00:45:30",1541175,3.472,258.9,4.572,1.059,-0.129,97.70422,-6.547,-5.197,70.23,0,109.1,13.76,-5.82,220.9
"2009-12-28 00:46:00",1541176,2.318,250.2,5.072,1.059,-2.763,97.71301,-6.525,-5.329,70.31,0,109.2,13.76,-5.80,212.2
"2009-12-28 00:46:30",1541177,2.641,254.7,5.939,1.156,-2.243,97.71812,-6.512,-5.332,70.45,0,109.1,13.76,-5.78,216.7
"2009-12-28 00:47:00",1541178,3.034,254.9,5.415,1.25,-1.593,97.71925,-6.509,-5.207,70.71,0,109.2,13.76,-5.78,216.9
"2009-12-28 00:47:30",1541179,3.347,261.4,6.068,1.082,-0.294,97.71953,-6.508,-5.164,70.94,0,109.2,13.76,-5.78,223.4
"2009-12-28 00:48:00",1541180,3.376,261.8,6.372,1.028,-0.12,97.71953,-6.508,-5.154,71.08,0,109.1,13.76,-5.78,223.8
"2009-12-28 00:48:30",1541181,2.807,255,6.629,1.148,-1.527,97.71953,-6.508,-5.196,71.1,0,109.2,13.76,-5.78,217.0
"2009-12-28 00:49:00",1541182,3.199,252.7,7.943,1.14,-1.926,97.71953,-6.508,-5.324,70.94,0,109.1,13.76,-5.78,214.7
"2009-12-28 00:49:30",1541183,2.46,250.1,5.442,0.987,-3.092,97.71953,-6.508,-5.284,71.04,0,109.1,13.76,-5.78,212.1
"2009-12-28 00:50:00",1541184,3.805,256.9,7.221,1.144,-0.608,97.71953,-6.508,-5.158,71.3,0,109.1,13.76,-5.78,218.9
"2009-12-28 00:50:30",1541185,4.072,254.3,10.69,1.162,-0.205,97.71953,-6.508,-5.166,71.41,0,109.1,13.76,-5.78,216.3
"2009-12-28 00:51:00",1541186,4.755,251.5,5.783,0.562,0.994,97.72123,-6.504,-5.07,71.68,0,109.1,13.76,-5.77,213.5
"2009-12-28 00:51:30",1541187,3.772,253.7,6.629,1.145,-0.535,97.72945,-6.483,-5.129,71.86,0,109.1,13.76,-5.75,215.7
"2009-12-28 00:52:00",1541188,3.873,255.2,5.678,0.994,-0.334,97.73656,-6.465,-5.175,71.97,0,109.1,13.75,-5.74,217.2
"2009-12-28 00:52:30",1541189,2.853,253,3.459,1.027,-2.052,97.75015,-6.43,-5.198,72.07,0,109.1,13.75,-5.70,215.0
"2009-12-28 00:53:00",1541190,3.613,252.7,6.779,1.195,-1.372,97.75496,-6.418,-5.173,72.16,0,109.1,13.76,-5.69,214.7
"2009-12-28 00:53:30",1541191,3.999,257.6,7.734,1.103,-0.445,97.75523,-6.417,-5.101,72.27,0,109.1,13.76,-5.69,219.6
"2009-12-28 00:54:00",1541192,4.664,254.2,4.339,0.626,0.87,97.75994,-6.405,-5.008,72.4,0,109.1,13.76,-5.68,216.2
"2009-12-28 00:54:30",1541193,4.104,251.2,6.969,1.035,-0.534,97.76023,-6.405,-5.073,72.38,0,109.1,13.76,-5.68,213.2
"2009-12-28 00:55:00",1541194,3.744,250.1,5.154,1.027,-0.358,97.76244,-6.399,-5.065,72.4,0,109.1,13.76,-5.67,212.1
"2009-12-28 00:55:30",1541195,2.503,246.8,5.204,0.83,-3.1,97.76442,-6.394,-5.206,72.32,0,109.1,13.76,-5.66,208.8
"2009-12-28 00:56:00",1541196,3.185,252.8,7.56,1.206,-1.139,97.77544,-6.366,-5.045,72.51,0,109.1,13.76,-5.64,214.8
"2009-12-28 00:56:30",1541197,3.66,254.2,5.942,1.102,-0.508,97.7947,-6.317,-5.043,72.49,0,109.1,13.76,-5.59,216.2
"2009-12-28 00:57:00",1541198,3.968,252.7,8.48,0.93,0.459,97.80037,-6.302,-4.98,72.46,0,109.1,13.77,-5.57,214.7
"2009-12-28 00:57:30",1541199,3.216,250.1,7.039,1.253,-1.115,97.80314,-6.295,-5.086,72.27,0,109.1,13.76,-5.57,212.1
"2009-12-28 00:58:00",1541200,3.595,253.4,8.06,1.039,-0.285,97.8084,-6.282,-5.012,72.31,0,109.1,13.77,-5.55,215.4
"2009-12-28 00:58:30",1541201,2.566,250.3,5.316,1.002,-3.001,97.8084,-6.282,-5.231,72.1,0,109.1,13.77,-5.55,212.3
"2009-12-28 00:59:00",1541202,2.802,251.1,6.4,1.085,-2.293,97.81147,-6.274,-5.133,72.24,0,109.1,13.77,-5.54,213.1
"2009-12-28 00:59:30",1541203,3.709,253,6.368,1.083,-0.459,97.81429,-6.267,-4.973,72.47,0,109.1,13.77,-5.54,215.0
"2009-12-28 01:00:00",1541204,4.053,257.1,4.428,0.909,0.576,97.81968,-6.253,-4.929,72.62,0,109.1,13.77,-5.52,219.1
"2009-12-28 01:00:30",1541205,3.75,256.8,5.974,1.105,-0.483,97.82677,-6.235,-4.996,72.71,0,109.1,13.77,-5.51,218.8
"2009-12-28 01:01:00",1541206,3.827,258.7,7.215,1.077,-0.78,97.83781,-6.207,-5.007,72.82,0,109.1,13.77,-5.48,220.7
"2009-12-28 01:01:30",1541207,2.188,248.1,3.206,0.077,-3.566,97.85051,-6.175,-5.091,72.79,0,109.1,13.8,-5.44,210.1
"2009-12-28 01:02:00",1541208,3.415,258.6,7.011,1.158,-0.88,97.84801,-6.181,-4.944,72.94,0,109.1,13.77,-5.45,220.6
"2009-12-28 01:02:30",1541209,3.962,262.3,6.15,1.004,-0.317,97.85051,-6.175,-4.932,72.98,0,109.1,13.77,-5.44,224.3
"2009-12-28 01:03:00",1541210,4.201,261.9,5.022,0.893,0.169,97.85051,-6.175,-4.864,73.02,0,109.1,13.77,-5.44,223.9
"2009-12-28 01:03:30",1541211,3.826,259,6.399,1.164,-1.089,97.85217,-6.171,-4.924,72.99,0,109.2,13.77,-5.44,221.0
"2009-12-28 01:04:00",1541212,4.286,263.4,5.549,1.045,-0.328,97.85526,-6.163,-4.889,73.01,0,109.1,13.77,-5.43,225.4
"2009-12-28 01:04:30",1541213,3.562,257.8,5.932,1.202,-1.228,97.86235,-6.145,-4.947,72.94,0,109.1,13.77,-5.41,219.8
"2009-12-28 01:05:00",1541214,3.998,262.3,6.367,1.148,-0.695,97.87398,-6.115,-4.897,73.01,0,109.1,13.77,-5.38,224.3
"2009-12-28 01:05:30",1541215,3.888,262.3,6.646,1.195,-0.615,97.88645,-6.083,-4.839,73.06,0,109.1,13.77,-5.35,224.3
"2009-12-28 01:06:00",1541216,4.359,262,5.796,0.955,-0.121,97.88816,-6.079,-4.81,73.11,0,109.1,13.77,-5.35,224.0
"2009-12-28 01:06:30",1541217,4.029,262.3,5.519,1.152,-1.131,97.889,-6.077,-4.874,73.02,0,109.1,13.77,-5.35,224.3
"2009-12-28 01:07:00",1541218,4.117,263.3,5.574,1.112,-0.363,97.889,-6.077,-4.831,73.03,0,109.1,13.77,-5.35,225.3
"2009-12-28 01:07:30",1541219,3.874,262.6,6.299,1.182,-0.936,97.89211,-6.069,-4.893,72.98,0,109.2,13.76,-5.34,224.6
"2009-12-28 01:08:00",1541220,4.098,264.3,5.338,1.086,-0.121,97.89893,-6.052,-4.787,73.03,0,109.1,13.76,-5.32,226.3
"2009-12-28 01:08:30",1541221,3.716,262.7,5.84,1.162,-1.265,97.90602,-6.034,-4.868,72.9,0,109.1,13.76,-5.30,224.7
"2009-12-28 01:09:00",1541222,3.91,264.3,5.48,1.032,-0.431,97.91454,-6.012,-4.825,72.93,0,109.1,13.77,-5.28,226.3
"2009-12-28 01:09:30",1541223,3.592,261.8,5.869,1.153,-0.659,97.92305,-5.99,-4.753,72.92,0,109.1,13.77,-5.26,223.8
"2009-12-28 01:10:00",1541224,2.982,257.2,6.219,1.172,-2.085,97.92305,-5.99,-4.919,72.72,0,109.1,13.77,-5.26,219.2
"2009-12-28 01:10:30",1541225,3.395,258.7,5.917,1.178,-0.792,97.92305,-5.99,-4.771,72.82,0,109.1,13.77,-5.26,220.7
"2009-12-28 01:11:00",1541226,3.781,256.5,5.481,1.011,-0.205,97.92305,-5.99,-4.787,72.78,0,109.1,13.77,-5.26,218.5
"2009-12-28 01:11:30",1541227,2.843,252.5,6.102,1.135,-1.362,97.92305,-5.99,-4.665,72.88,0,109.1,13.77,-5.26,214.5
"2009-12-28 01:12:00",1541228,3.627,253.7,5.658,1.104,-0.767,97.92305,-5.99,-4.8,72.73,0,109.1,13.77,-5.26,215.7
"2009-12-28 01:12:30",1541229,3.851,253.1,6.272,1.065,-0.494,97.92305,-5.99,-4.704,72.79,0,109.1,13.77,-5.26,215.1
"2009-12-28 01:13:00",1541230,3.24,250,5.766,1.188,-1.667,97.92305,-5.99,-4.819,72.64,0,109.1,13.77,-5.26,212.0
"2009-12-28 01:13:30",1541231,4.315,252.6,5.516,1.107,-0.349,97.92305,-5.99,-4.785,72.66,0,109.1,13.78,-5.26,214.6
"2009-12-28 01:14:00",1541232,4.031,248.4,6.151,1.154,-0.99,97.92305,-5.99,-4.708,72.66,0,109.1,13.78,-5.26,210.4
"2009-12-28 01:14:30",1541233,4.741,252.7,3.658,0.739,0.613,97.92305,-5.99,-4.693,72.58,0,109.1,13.78,-5.26,214.7
"2009-12-28 01:15:00",1541234,4.225,247.5,6.371,1.111,-0.597,97.92305,-5.99,-4.69,72.47,0,109.1,13.78,-5.26,209.5
"2009-12-28 01:15:30",1541235,4.963,250.5,5.859,0.915,-0.009,97.92333,-5.989,-4.754,72.28,0,109.1,13.77,-5.26,212.5
"2009-12-28 01:16:00",1541236,4.046,247.4,6.913,1.118,-0.879,97.92418,-5.987,-4.694,72.14,0,109.1,13.77,-5.26,209.4
"2009-12-28 01:16:30",1541237,4.906,249.6,5.382,1.054,0.177,97.92759,-5.979,-4.666,72.02,0,109.1,13.77,-5.25,211.6
"2009-12-28 01:17:00",1541238,4.756,247.6,6.013,1.122,-0.201,97.93099,-5.97,-4.678,71.91,0,109.1,13.78,-5.24,209.6
"2009-12-28 01:17:30",1541239,5.318,249.4,4.521,0.816,0.411,97.9344,-5.961,-4.61,71.83,0,109.2,13.78,-5.23,211.4
"2009-12-28 01:18:00",1541240,4.94,250.1,6.398,1.071,0.128,97.95085,-5.919,-4.653,71.61,0,109.1,13.78,-5.19,212.1
"2009-12-28 01:18:30",1541241,5.051,248.3,5.036,0.979,-0.029,97.95681,-5.904,-4.71,71.45,0,109.1,13.78,-5.17,210.3
"2009-12-28 01:19:00",1541242,5.068,249,5.616,1.113,-0.041,97.9571,-5.904,-4.657,71.4,0,109.1,13.78,-5.17,211.0
"2009-12-28 01:19:30",1541243,5.145,249.8,5.997,1.065,0.271,97.9571,-5.904,-4.647,71.26,0,109.2,13.77,-5.17,211.8
"2009-12-28 01:20:00",1541244,4.876,249.1,5.916,1.178,-0.415,97.9571,-5.904,-4.608,71.13,0,109.1,13.78,-5.17,211.1
"2009-12-28 01:20:30",1541245,5.442,251.2,5.279,0.941,0.214,97.9571,-5.904,-4.641,70.8,0,109.1,13.78,-5.17,213.2
"2009-12-28 01:21:00",1541246,5.528,251.2,4.204,0.807,0.977,97.95965,-5.897,-4.592,70.54,0,109.1,13.78,-5.17,213.2
"2009-12-28 01:21:30",1541247,5.217,247.5,5.702,0.992,0.117,97.96334,-5.888,-4.639,70.23,0,109.1,13.77,-5.16,209.5
"2009-12-28 01:22:00",1541248,5.135,246.7,5.522,1.074,0.229,97.97071,-5.869,-4.603,69.97,0,109.1,13.78,-5.14,208.7
"2009-12-28 01:22:30",1541249,5.616,247.8,2.752,0.751,1.093,97.97695,-5.853,-4.58,69.76,0,109.1,13.77,-5.12,209.8
"2009-12-28 01:23:00",1541250,5.265,244.8,5.675,1.109,0.265,97.98888,-5.823,-4.583,69.51,0,109.1,13.77,-5.09,206.8
"2009-12-28 01:23:30",1541251,5.461,243.9,5.255,1.014,0.131,97.99114,-5.817,-4.605,69.24,0,109.1,13.77,-5.09,205.9
"2009-12-28 01:24:00",1541252,5.707,246.2,4.256,0.879,0.853,97.99114,-5.817,-4.518,69.15,0,109.1,13.77,-5.09,208.2
"2009-12-28 01:24:30",1541253,5.511,246.9,4.922,0.994,0.903,97.99114,-5.817,-4.535,68.98,0,109.1,13.77,-5.09,208.9
"2009-12-28 01:25:00",1541254,4.956,245.9,5.41,1.173,0.113,97.99114,-5.817,-4.539,68.9,0,109.1,13.77,-5.09,207.9
"2009-12-28 01:25:30",1541255,5.902,248.8,4.216,0.702,1.16,97.99171,-5.815,-4.483,68.94,0,109.1,13.77,-5.08,210.8
"2009-12-28 01:26:00",1541256,5.66,247.6,4.892,0.939,0.618,97.99596,-5.805,-4.471,68.85,0,109.1,13.77,-5.07,209.6
"2009-12-28 01:26:30",1541257,5.359,244.9,6.132,1.11,-0.721,98.00249,-5.788,-4.572,68.71,0,109.1,13.77,-5.06,206.9
"2009-12-28 01:27:00",1541258,5.842,247.5,4.308,0.911,0.713,98.0076,-5.775,-4.494,68.67,0,109.1,13.77,-5.04,209.5
"2009-12-28 01:27:30",1541259,5.878,247,4.84,0.882,0.398,98.01469,-5.757,-4.467,68.62,0,109.1,13.77,-5.03,209.0
"2009-12-28 01:28:00",1541260,6.265,247.8,3.924,0.886,1.13,98.0249,-5.731,-4.441,68.51,0,109.1,13.77,-5.00,209.8
"2009-12-28 01:28:30",1541261,6.383,249.1,3.931,0.641,1.422,98.02518,-5.73,-4.421,68.36,0,109.1,13.77,-5.00,211.1
"2009-12-28 01:29:00",1541262,6.342,249,3.647,0.371,1.27,98.02518,-5.73,-4.396,68.24,0,109.1,13.77,-5.00,211.0
"2009-12-28 01:29:30",1541263,6.22,248.4,3.661,0.634,0.987,98.02518,-5.73,-4.382,68.15,0,109.1,13.77,-5.00,210.4
"2009-12-28 01:30:00",1541264,6.171,248.4,3.747,0.523,0.658,98.02518,-5.73,-4.399,68.05,0,109.1,13.77,-5.00,210.4
"2009-12-28 01:30:30",1541265,6.114,246.3,4.095,0.545,0.573,98.02633,-5.727,-4.383,67.96,0,109.1,13.77,-5.00,208.3
"2009-12-28 01:31:00",1541266,6.06,248.2,3.791,0.544,0.504,98.03087,-5.716,-4.378,67.9,0,109.1,13.77,-4.98,210.2
"2009-12-28 01:31:30",1541267,5.977,246.9,3.528,0.534,0.521,98.03427,-5.707,-4.368,67.84,0,109.2,13.77,-4.98,208.9
"2009-12-28 01:32:00",1541268,5.891,247.2,2.593,0.734,0.181,98.03768,-5.698,-4.358,67.8,0,109.1,13.77,-4.97,209.2
"2009-12-28 01:32:30",1541269,5.136,242.6,5.802,1.086,-0.854,98.04222,-5.687,-4.437,67.64,0,109.1,13.77,-4.95,204.6
"2009-12-28 01:33:00",1541270,4.923,240.5,5.946,1.166,-1.56,98.05186,-5.662,-4.501,67.51,0,109.1,13.77,-4.93,202.5
"2009-12-28 01:33:30",1541271,5.382,241.6,6.115,1.075,-0.417,98.05868,-5.645,-4.453,67.53,0,109.1,13.77,-4.91,203.6
"2009-12-28 01:34:00",1541272,5.708,243.1,4.093,0.884,1.259,98.05923,-5.644,-4.345,67.58,0,109.1,13.78,-4.91,205.1
"2009-12-28 01:34:30",1541273,5.865,243.8,4.086,0.4,1.648,98.05923,-5.644,-4.349,67.55,0,109.1,13.78,-4.91,205.8
"2009-12-28 01:35:00",1541274,5.951,244.9,4.014,0.464,1.694,98.05923,-5.644,-4.335,67.53,0,109.1,13.78,-4.91,206.9
"2009-12-28 01:35:30",1541275,5.817,246.7,4.018,0.713,1.001,98.05923,-5.644,-4.37,67.48,0,109.1,13.77,-4.91,208.7
"2009-12-28 01:36:00",1541276,5.704,247.2,3.466,0.799,1.074,98.05923,-5.644,-4.329,67.46,0,109.1,13.77,-4.91,209.2
"2009-12-28 01:36:30",1541277,4.821,240.9,6.042,1.106,-0.91,98.05923,-5.644,-4.366,67.36,0,109.1,13.77,-4.91,202.9
"2009-12-28 01:37:00",1541278,4.098,239.4,3.857,0.891,-2.401,98.05923,-5.644,-4.496,67.2,0,109.1,13.77,-4.91,201.4
"2009-12-28 01:37:30",1541279,5.779,249,3.737,0.81,1.074,98.06123,-5.638,-4.358,67.27,0,109.1,13.77,-4.91,211.0
"2009-12-28 01:38:00",1541280,5.856,250,3.19,0.814,1.081,98.0669,-5.624,-4.285,67.3,0,109.1,13.78,-4.89,212.0
"2009-12-28 01:38:30",1541281,6.001,251,3.384,0.723,1.228,98.06803,-5.621,-4.289,67.27,0,109.1,13.77,-4.89,213.0
"2009-12-28 01:39:00",1541282,6.14,251.7,3.396,0.643,1.262,98.07286,-5.609,-4.265,67.22,0,109.2,13.77,-4.88,213.7
"2009-12-28 01:39:30",1541283,6.114,252.1,3.222,0.733,1.202,98.08676,-5.573,-4.251,67.21,0,109.1,13.77,-4.84,214.1
"2009-12-28 01:40:00",1541284,6.205,253.2,3.634,0.575,1.19,98.09158,-5.561,-4.265,67.16,0,109.1,13.77,-4.83,215.2
"2009-12-28 01:40:30",1541285,6.299,252.8,3.774,0.502,0.697,98.09328,-5.557,-4.333,67.06,0,109.1,13.77,-4.82,214.8
"2009-12-28 01:41:00",1541286,5.555,248.3,6.367,1.199,-1.322,98.09328,-5.557,-4.427,66.87,0,109.1,13.77,-4.82,210.3
"2009-12-28 01:41:30",1541287,5.645,247.1,6.422,1.148,-1.098,98.09328,-5.557,-4.42,66.81,0,109.1,13.77,-4.82,209.1
"2009-12-28 01:42:00",1541288,6.353,252.1,4.655,0.956,0.361,98.09328,-5.557,-4.275,66.91,0,109.1,13.77,-4.82,214.1
"2009-12-28 01:42:30",1541289,6.148,249.5,5.562,1.064,0.388,98.09328,-5.557,-4.31,66.79,0,109.1,13.77,-4.82,211.5
"2009-12-28 01:43:00",1541290,6.215,252,4.584,0.952,0.857,98.09328,-5.557,-4.267,66.72,0,109.1,13.77,-4.82,214.0
"2009-12-28 01:43:30",1541291,6.361,251.3,4.266,0.881,1.015,98.09328,-5.557,-4.239,66.66,0,109.1,13.77,-4.82,213.3
"2009-12-28 01:44:00",1541292,6.764,248.6,3.803,0.479,1.342,98.09328,-5.557,-4.222,66.61,0,109.1,13.77,-4.82,210.6